Regional Weather Roundup
Issued by NWS

Home | Current Version | Previous Version | Text Only | Print | Product List | Glossary On
Versions: 1 2 3 4 5 6 7 8 9 10 11 12 13 14 15 16 17 18 19 20 21 22 23 24 25 26 27 28 29 30 31 32 33 34 35 36 37 38 39 40 41 42 43 44 45 46 47 48 49 50
000
ASUS43 KDTX 261301
RWRMI
MICHIGAN HOURLY REGIONAL WEATHER ROUNDUP
NATIONAL WEATHER SERVICE DETROIT/PONTIAC MI
900 AM EDT WED APR 26 2017

NOTE: "FAIR" INDICATES FEW OR NO CLOUDS BELOW 12,000 FEET WITH NO
SIGNIFICANT WEATHER AND/OR OBSTRUCTION TO VISIBILITY.

MIZ047>049-052>055-059>063-066>070-074>076-081>083-261400-
SOUTHEAST LOWER MICHIGAN

CITY           SKY/WX    TMP DP  RH WIND       PRES   REMARKS
ADRIAN         PTSUNNY   63  57  81 S12       29.66F
ALMA           PTSUNNY   63  56  79 SE12      29.61F
ANN ARBOR      SUNNY     59  56  89 MISG      29.67F
BAD AXE        MOSUNNY   58  54  85 SE9       29.70F
CARO           SUNNY     60  54  80 SE12G17   29.67F
DETROIT        MOSUNNY   61  55  81 SE9       29.71F
FLINT          SUNNY     59  54  83 SE14      29.67F
GROSSE ILE     SUNNY     60  54  82 SE8       29.71S
HILLSDALE      CLOUDY    61  54  77 SE8G16    29.64S
HOWELL         MOSUNNY   61  54  77 SE14      29.65F

CITY           SKY/WX    TMP DP  RH WIND       PRES   REMARKS
JACKSON        PTSUNNY   62  55  77 SE13      29.62F
LAMBERTVILLE   CLOUDY    62  56  80 SE7       29.68F
LANSING        PTSUNNY   63  54  72 SE10      29.62F
LAPEER         FAIR      58  53  85 SE10      29.71S
MASON          PTSUNNY   62  56  81 SE13      29.61F
MONROE         SUNNY     60  56  85 SE7       29.69F
MT. CLEMENS    MOSUNNY   56  56 100 SE8       29.72S
PONTIAC        PTSUNNY   57  53  86 SE9       29.70S
PORT HOPE        N/A     55  52  89 SE13      29.69S
PORT HURON     SUNNY     59  52  77 SE8       29.74S
TRI CITIES     CLOUDY    62  55  77 SE15      29.64F
MIDLAND        PTSUNNY   63  53  70 SE12      29.62F
TROY           SUNNY     58  53  81 SE6       29.73S
SAGINAW HB     SUNNY     61  52  72 SE16      29.65F
$$
MIZ043>046-050>051-056>058-064>065-071>073-077>080-261400-
SOUTHWEST LOWER MICHIGAN

CITY           SKY/WX    TMP DP  RH WIND       PRES   REMARKS
BATTLE CREEK   CLOUDY    62  56  80 S14       29.60S
BENTON HARBOR  PTSUNNY   66  55  67 S14       29.55R
BIG RAPIDS     MOSUNNY   61  53  74 SE10G16   29.57S
COLDWATER      CLOUDY    62  56  81 S10G18    29.61S
FREMONT        FAIR      63  53  68 SE10G17   29.54F
HOLLAND        CLOUDY    65  56  72 SE12      29.55S
GRAND RAPIDS   CLOUDY    63  56  78 SE13      29.57S
IONIA          FAIR      62  55  77 SE15      29.59S
KALAMAZOO      CLOUDY    64  54  69 SE9       29.60R
LUDINGTON      MOSUNNY   64  56  74 SE12G17   29.50F
MARSHALL       CLOUDY    63  56  79 SE9       29.61R
MOUNT PLEASANT PTSUNNY   62  54  74 SE10G16   29.60F
MUSKEGON       CLOUDY    66  56  70 SE15      29.53F
SOUTH HAVEN    CLOUDY    65  56  73 S7        29.55R
$$
MIZ016>042-261400-
NORTHERN LOWER MICHIGAN

CITY           SKY/WX    TMP DP  RH WIND       PRES   REMARKS
ALPENA         CLOUDY    46  46 100 E8        29.68F FOG
BEAVER ISLAND  CLOUDY    44  44  99 E12       29.56F FOG
BELLAIRE       CLOUDY    65  53  65 S10       29.55F
CADILLAC       CLOUDY    61  54  78 SE12      29.57S
CHARLEVOIX     MOSUNNY   63  53  71 SE13G18   29.57F
FRANKFORT      CLOUDY    65  54  65 SE13      29.51F
GAYLORD        CLOUDY    60  51  72 SE12      29.60F
GRAYLING       PTSUNNY   61  54  76 SE8       29.60F
HARBOR SPRINGS CLOUDY    55  51  88 E10       29.57F
HOUGHTON LAKE  CLOUDY    59  53  80 SE10      29.61F
MANISTEE       MOSUNNY   65  55  70 SE12G17   29.50F
OSCODA         PTSUNNY   53  50  89 S7        29.68S
PELLSTON       CLOUDY    53  49  86 E7        29.59F
ROGERS CITY    CLOUDY    52  49  90 SE12      29.66F FOG
TRAVERSE CITY  CLOUDY    64  53  67 SE12G20   29.53F
$$
MIZ007>008-015-261400-
EASTERN UPPER MICHIGAN

CITY           SKY/WX    TMP DP  RH WIND       PRES   REMARKS
KINROSS        CLOUDY    47  46  97 E17G24    29.65S FOG
MACKINAC ISLAN FOG       40  40 100 E20G30    29.62R VSB<1/4 WCI  31
NEWBERRY       CLOUDY    47  46  97 E12G18    29.60R FOG
S. S. MARIE    LGT RAIN  52  49  89 E12G20    29.65F FOG
MUNISING         N/A     39  39 100 NE5       29.54F
$$
MIZ004>006-011>014-085-261400-
CENTRAL UPPER MICHIGAN

CITY           SKY/WX    TMP DP  RH WIND       PRES   REMARKS
MANISTIQUE     CLOUDY    49  48  97 E12G17    29.54F FOG
ESCANABA       CLOUDY    49  48  97 NE10      29.51F FOG
MENOMINEE      CLOUDY    48  46  93 E9        29.49S
$$
MIZ001>003-009>011-084-261400-
WESTERN UPPER MICHIGAN

CITY           SKY/WX    TMP DP  RH WIND       PRES   REMARKS
IRON MOUNTAIN  CLOUDY    49  46  90 NE7       29.48F
HOUGHTON       RAIN      35  32  88 E13G22    29.60F WCI  26
COPPER HARBOR    N/A     34  33  96 E8G23     29.65F WCI  27
IRONWOOD       MIX PCPN  32  32 100 NE6       29.55F WCI  26
$$

ABBREVIATIONS USED IN REMARKS
   TC - TEMPERATURE IN CELSIUS
  WCI - WIND CHILL INDEX
   HX - HEAT INDEX
  VSB - VISIBILITY




USA.gov is the U.S. government's official web portal to all federal, state and local government web resources and services.